This demonstration page uses our WeatherBlox Daily Observations layout. Learn more.

Left ArrowRight Arrow

36.19886, -115.1175

Hourly Observations for November 24, 2021

Temp ( °F °C ) Dew Point ( °F °C ) Humidity (%) Winds ( mph kmh ) Pressure ( in mb ) Visibility ( mi km ) Precip ( " mm )
12:53 am 00:53 Clear 57 13.9 9 -12.8 15 15 NNW 15 24 29.96 1015 10 16 0.00 0.00
1:53 am 01:53 Clear 56 13.3 10 -12.2 16 16 N 12 19 29.99 1016 10 16 0.00 0.00
2:53 am 02:53 Clear 54 12.2 10 -12.2 17 17 NW 13 20 30.01 1016 10 16 0.00 0.00
3:53 am 03:53 Clear 58 14.4 13 -10.6 17 17 NNW 14 22 30.04 1017 10 16 0.00 0.00
4:53 am 04:53 Clear 57 13.9 15 -9.4 19 19 NNW 18 30 30.06 1018 10 16 0.00 0.00
5:53 am 05:53 Clear 55 12.8 16 -8.9 21 21 NNW 18 30 30.11 1020 10 16 0.00 0.00
6:53 am 06:53 Sunny 55 12.8 15 -9.4 20 20 NNW 18 30 30.15 1021 10 16 0.00 0.00
7:53 am 07:53 Sunny 55 12.8 14 -10 20 20 NNW 18 30 30.20 1023 10 16 0.00 0.00
8:53 am 08:53 Sunny 57 13.9 13 -10.6 17 17 N 20 31 30.24 1024 10 16 0.00 0.00
9:53 am 09:53 Sunny 59 15 12 -11.1 15 15 NNW 22 35 30.26 1025 10 16 0.00 0.00
10:53 am 10:53 Sunny 60 15.6 11 -11.7 14 14 N 16 26 30.27 1025 10 16 0.00 0.00
11:53 am 11:53 Sunny 61 16.1 10 -12.2 13 13 NNW 17 28 30.25 1025 10 16 0.00 0.00
12:53 pm 12:53 Sunny 62 16.7 10 -12.2 13 13 NW 18 30 30.24 1024 10 16 0.00 0.00
1:53 pm 13:53 Sunny 62 16.7 10 -12.2 13 13 NNW 18 30 30.24 1024 10 16 0.00 0.00
2:53 pm 14:53 Sunny 63 17.2 9 -12.8 12 12 NNE 17 28 30.26 1025 10 16 0.00 0.00
3:53 pm 15:53 Sunny 62 16.7 7 -13.9 11 11 N 10 17 30.28 1025 10 16 0.00 0.00
4:53 pm 16:53 Clear 59 15 5 -15 11 11 NNW 14 22 30.30 1026 10 16 0.00 0.00
5:53 pm 17:53 Clear 56 13.3 4 -15.6 12 12 NNW 10 17 30.33 1027 10 16 0.00 0.00
6:53 pm 18:53 Clear 56 13.3 3 -16.1 11 11 N 12 19 30.36 1028 10 16 0.00 0.00
7:53 pm 19:53 Clear 56 13.3 0 -17.8 10 10 N 9 15 30.39 1029 10 16 0.00 0.00
8:53 pm 20:53 Clear 56 13.3 2 -16.7 11 11 N 10 17 30.42 1030 10 16 0.00 0.00
9:53 pm 21:53 Clear 54 12.2 2 -16.7 12 12 N 14 22 30.44 1031 10 16 0.00 0.00
10:53 pm 22:53 Clear 53 11.7 2 -16.7 12 12 N 7 11 30.46 1032 10 16 0.00 0.00
11:53 pm 23:53 Clear 52 11.1 3 -16.1 13 13 NNW 12 19 30.48 1032 10 16 0.00 0.00

Powered by AerisWeather